Auburn, AL

1:03 PM CST on November 12, 2019 (GMT -0600)
Auburn-opelika-pitts

Weather History for KAUO - June, 2019

Change the Weather History Date:

Saturday, June 8, 2019

  Actual Average Record
Temperature  
Mean Temperature 77 °F -  
Max Temperature 82 °F - 97 °F (2008)
Min Temperature 71 °F - 51 °F (1976)
Cooling Degree Days 12    
Month to date cooling degree days 106  
Year to date cooling degree days 522  
Since 1 June cooling degree days 106  
Growing Degree Days 26 (Base 50)    
Moisture  
Dew Point 76 °F    
Average Humidity 100    
Maximum Humidity 100    
Minimum Humidity 100    
Precipitation  
Precipitation 0.20 in - 3.14 in (2005)
Month to date precipitation 1.04  
Year to date precipitation 21.50  
Sea Level Pressure  
Sea Level Pressure 29.81 in    
Wind  
Wind Speed 8 mph (SSE)    
Max Wind Speed 14 mph    
Max Gust Speed 18 mph    
Visibility 10 miles    
Events Rain , Thunderstorm    
T = Trace of Precipitation, MM = Missing Value Source: NWS Daily Summary

Daily Weather History Graph

Daily Weather History Graph

Search for Another Location

Airport or City:

Astronomy

Jun. 08, 2019 Rise Set
Actual Time 5:33 AM CDT 7:48 PM CDT
Civil Twilight 5:05 AM CDT 8:16 PM CDT
Nautical Twilight 4:30 AM CDT 8:51 PM CDT
Astronomical Twilight 3:53 AM CDT 9:28 PM CDT
Moon 10:53 AM CDT (6/8) No Moon Set
Length of Visible Light 15h 11m
Length of Day
14h 14m
Waxing Crescent, 33% of the Moon is Illuminated
Jun 8
Waxing Crescent
Jun 10
First Quarter
Jun 17
Full
Jun 25
Last Quarter
Jul 2
New

Hourly Weather History & Observations

Time (CDT) Temp. Dew Point Humidity Pressure Visibility Wind Dir Wind Speed Gust Speed Precip Events Conditions
12:20 AM 71.6 °F - N/A% 29.81 in 10.0 mi SSE 5.8 mph - N/A   Overcast
12:46 AM 71.6 °F - N/A% 29.80 in 10.0 mi SSE 5.8 mph - N/A   Overcast
12:56 AM 72.0 °F - N/A% 29.82 in 10.0 mi SE 5.8 mph - N/A   Overcast
1:56 AM 72.0 °F - N/A% 29.81 in 10.0 mi SE 5.8 mph - 0.00 in   Overcast
2:20 AM 71.6 °F - N/A% 29.78 in 10.0 mi SE 4.6 mph - N/A   Overcast
2:40 AM 71.6 °F - N/A% 29.78 in 10.0 mi South 6.9 mph - 0.00 in Rain , Thunderstorm Light Rain
2:56 AM 72.0 °F - N/A% 29.81 in 10.0 mi SSE 4.6 mph - 0.00 in Rain , Thunderstorm Light Rain
3:34 AM 71.6 °F - N/A% 29.77 in 6.0 mi SSE 6.9 mph - 0.02 in Rain , Thunderstorm Light Thunderstorms and Rain
3:56 AM 72.0 °F - N/A% 29.81 in 9.0 mi SSE 8.1 mph - 0.03 in Rain , Thunderstorm Light Rain
4:15 AM 71.6 °F - N/A% 29.77 in 9.0 mi SE 8.1 mph - 0.01 in Rain Light Rain
4:56 AM 72.0 °F - N/A% 29.80 in 9.0 mi SSE 9.2 mph - 0.01 in   Overcast
5:56 AM 72.0 °F - N/A% 29.82 in 7.0 mi South 8.1 mph - 0.01 in Rain Light Rain
6:56 AM 72.0 °F - N/A% 29.81 in 8.0 mi South 9.2 mph - 0.00 in   Overcast
7:04 AM 71.6 °F - N/A% 29.78 in 10.0 mi SSE 8.1 mph - N/A Thunderstorm Overcast
7:19 AM 73.4 °F - N/A% 29.79 in 10.0 mi SSE 9.2 mph - N/A   Overcast
7:33 AM 73.4 °F - N/A% 29.79 in 10.0 mi SSE 8.1 mph - N/A   Overcast
7:56 AM 73.0 °F - N/A% 29.81 in 7.0 mi SSE 8.1 mph - 0.00 in Rain Light Rain
8:56 AM 73.9 °F - N/A% 29.83 in 10.0 mi SSW 12.7 mph - 0.01 in   Overcast
9:10 AM 75.2 °F - N/A% 29.79 in 10.0 mi South 15.0 mph - N/A   Overcast
9:56 AM 77.0 °F - N/A% 29.82 in 10.0 mi South 11.5 mph - N/A   Overcast
10:40 AM 75.2 °F - N/A% 29.78 in 7.0 mi WSW 8.1 mph - 0.08 in Rain Light Rain
10:47 AM 77.0 °F - N/A% 29.78 in 10.0 mi SSW 9.2 mph - 0.08 in Rain Light Rain
10:56 AM 79.0 °F - N/A% 29.81 in 10.0 mi SSW 12.7 mph - 0.08 in   Mostly Cloudy
11:03 AM 80.6 °F - N/A% 29.78 in 10.0 mi SSW 12.7 mph - N/A   Scattered Clouds
11:51 AM 77.0 °F 77.0 °F 100% 29.78 in 10.0 mi WNW 6.9 mph - 0.00 in   Overcast
11:56 AM 77.0 °F 77.0 °F 100% 29.82 in 10.0 mi WNW 4.6 mph - 0.00 in   Overcast
12:56 PM 75.0 °F 75.0 °F 100% 29.84 in 10.0 mi SSE 8.1 mph - 0.00 in   Overcast
1:56 PM 75.0 °F - N/A% 29.81 in 10.0 mi Variable 5.8 mph - 0.06 in   Partly Cloudy
2:56 PM 73.9 °F - N/A% 29.82 in 10.0 mi SE 11.5 mph - N/A   Mostly Cloudy
3:21 PM 73.4 °F - N/A% 29.79 in 10.0 mi SSE 6.9 mph - N/A   Mostly Cloudy
3:33 PM 75.2 °F - N/A% 29.79 in 10.0 mi South 4.6 mph - N/A   Mostly Cloudy
3:56 PM 75.0 °F 75.0 °F 100% 29.83 in 8.0 mi SSE 13.8 mph 18.4 mph N/A   Partly Cloudy
4:21 PM 73.4 °F - N/A% 29.80 in 10.0 mi South 10.4 mph - N/A   Mostly Cloudy
4:56 PM 73.9 °F - N/A% 29.84 in 10.0 mi South 11.5 mph - N/A   Mostly Cloudy
5:09 PM 73.4 °F - N/A% 29.79 in 10.0 mi South 9.2 mph - N/A   Mostly Cloudy
5:38 PM 75.2 °F 75.2 °F 100% 29.80 in 10.0 mi SSW 9.2 mph - N/A   Mostly Cloudy
5:56 PM 75.0 °F 75.0 °F 100% 29.83 in 10.0 mi South 10.4 mph - N/A   Overcast
6:12 PM 75.2 °F 75.2 °F 100% 29.80 in 10.0 mi SSW 8.1 mph - N/A   Mostly Cloudy
6:56 PM 75.0 °F 75.0 °F 100% 29.84 in 10.0 mi South 5.8 mph - N/A   Scattered Clouds
7:56 PM 73.9 °F - N/A% 29.84 in 10.0 mi SSE 5.8 mph - N/A   Clear
8:56 PM 73.0 °F - N/A% 29.86 in 10.0 mi SE 5.8 mph - N/A   Clear
9:47 PM 73.4 °F - N/A% 29.84 in 10.0 mi SSE 8.1 mph - N/A   Overcast
9:56 PM 73.0 °F - N/A% 29.87 in 10.0 mi SSE 6.9 mph - N/A   Overcast
10:29 PM 73.4 °F - N/A% 29.84 in 10.0 mi SSE 9.2 mph - N/A   Scattered Clouds
10:36 PM 73.4 °F - N/A% 29.84 in 10.0 mi SSE 8.1 mph - N/A   Mostly Cloudy
10:56 PM 73.0 °F - N/A% 29.88 in 10.0 mi SE 6.9 mph - N/A   Overcast
11:48 PM 71.6 °F - N/A% 29.86 in 10.0 mi SSE 5.8 mph - N/A   Overcast
11:56 PM 72.0 °F - N/A% 29.89 in 10.0 mi SE 5.8 mph - N/A   Overcast